Date String (YYYY-MM-DD hh:mm:ss) UTC,Instrument flags,absolute air pressure of the measurement (hPa),sample flow rate (lpm),inlet stack bypass flow (lpm),air temperature of the measurement (°C),ambient temperature measured by the external sensor (°C),aerosol sample conditioner tube jacket temperature (°C),OPC LED temperature (°C),internal box temperature (°C),relative humidity of the measurement (%),span deviation,mass concentration of particles derived from Lorenz-Mie calculation of OPC scattering (μg/m³),mass concentration of particles derived from Lorenz-Mie calculation of OPC scattering (μg/m³),mass concentration of particles derived from Lorenz-Mie calculation of OPC scattering (μg/m³)
DateTimeUTC,F1_M11,P_M11,Q1_M11,Q2_M11,T1_M11,T2_M11,T3_M11,T4_M11,T5_M11,U1_M11,ZSPAN_M11,X2_M11,X0_M11,X1_M11
2024-01-27 12:00:00,SystemResetWarning,0835.3,5.00,000.00,019.6,018.9,000.0,027.9,020.9,11.4,0000.0,0001.78,0001.91,0001.68
2024-01-27 12:01:00,SystemResetWarning,0835.2,4.99,000.00,019.6,018.9,000.0,027.9,020.9,11.4,0000.0,0001.79,0001.92,0001.68
2024-01-27 12:02:00,SystemResetWarning,0835.4,5.00,000.00,019.6,018.8,000.0,027.9,020.8,11.4,0000.0,0001.76,0001.86,0001.67
2024-01-27 12:03:00,SystemResetWarning,0835.3,5.00,000.00,019.5,018.8,000.0,027.9,020.8,11.4,0000.0,0001.75,0001.86,0001.66
2024-01-27 12:04:00,SystemResetWarning,0835.3,5.00,000.00,019.5,018.8,000.0,027.9,020.8,11.4,0000.0,0001.74,0001.86,0001.64
2024-01-27 12:05:00,SystemResetWarning,0835.4,5.01,000.00,019.5,018.8,000.0,027.9,020.8,11.4,0000.0,0001.72,0001.84,0001.62
2024-01-27 12:06:00,SystemResetWarning,0835.4,5.00,000.00,019.5,018.8,000.0,027.9,020.8,11.4,0000.0,0001.70,0001.84,0001.60
2024-01-27 12:07:00,SystemResetWarning,0835.3,5.00,000.00,019.5,018.8,000.0,027.9,020.8,11.4,0000.0,0001.68,0001.83,0001.58
2024-01-27 12:08:00,SystemResetWarning,0835.3,5.00,000.00,019.5,018.8,000.0,027.9,020.8,11.3,0000.0,0001.66,0001.78,0001.56
2024-01-27 12:09:00,SystemResetWarning,0835.3,5.00,000.00,019.5,018.8,000.0,027.9,020.9,11.3,0000.0,0001.64,0001.73,0001.55
2024-01-27 12:10:00,SystemResetWarning,0835.3,4.99,000.00,019.6,018.8,000.0,027.9,020.9,11.2,0000.0,0001.64,0001.75,0001.54
2024-01-27 12:11:00,SystemResetWarning,0835.5,4.99,000.00,019.6,018.8,000.0,027.9,020.9,11.2,0000.0,0001.63,0001.76,0001.53
2024-01-27 12:12:00,SystemResetWarning,0835.4,4.99,000.00,019.6,018.8,000.0,027.9,020.9,11.2,0000.0,0001.61,0001.73,0001.51
2024-01-27 12:13:00,SystemResetWarning,0835.5,5.00,000.00,019.6,018.8,000.0,027.9,020.9,11.3,0000.0,0001.60,0001.73,0001.50
2024-01-27 12:14:00,SystemResetWarning,0835.3,5.00,000.00,019.5,018.8,000.0,027.9,020.8,11.3,0000.0,0001.58,0001.72,0001.49
2024-01-27 12:15:00,SystemResetWarning,0835.3,5.00,000.00,019.5,018.8,000.0,027.9,020.8,11.4,0000.0,0001.58,0001.70,0001.48
2024-01-27 12:16:00,SystemResetWarning,0835.4,5.00,000.00,019.5,018.8,000.0,027.9,020.8,11.5,0000.0,0001.60,0001.76,0001.50
2024-01-27 12:17:00,SystemResetWarning,0835.4,5.00,000.00,019.6,018.8,000.0,027.9,020.8,11.5,0000.0,0001.61,0001.75,0001.50
2024-01-27 12:18:00,SystemResetWarning,0835.4,5.00,000.00,019.5,018.8,000.0,027.8,020.8,11.6,0000.0,0001.60,0001.75,0001.50
2024-01-27 12:19:00,SystemResetWarning,0835.4,4.99,000.00,019.5,018.7,000.0,027.8,020.8,11.6,0000.0,0001.60,0001.75,0001.50
2024-01-27 12:20:00,SystemResetWarning,0835.4,4.99,000.00,019.5,018.7,000.0,027.8,020.8,11.5,0000.0,0001.59,0001.74,0001.49
2024-01-27 12:21:00,SystemResetWarning,0835.4,4.99,000.00,019.5,018.7,000.0,027.8,020.8,11.5,0000.0,0001.56,0001.69,0001.48
2024-01-27 12:22:00,SystemResetWarning,0835.5,5.00,000.00,019.5,018.7,000.0,027.8,020.8,11.4,0000.0,0001.55,0001.67,0001.48
2024-01-27 12:23:00,SystemResetWarning,0835.4,5.01,000.00,019.5,018.7,000.0,027.8,020.8,11.2,0000.0,0001.54,0001.65,0001.48
2024-01-27 12:24:00,SystemResetWarning,0835.4,5.01,000.00,019.5,018.7,000.0,027.8,020.8,11.1,0000.0,0001.56,0001.66,0001.50
2024-01-27 12:25:00,SystemResetWarning,0835.5,5.00,000.00,019.5,018.7,000.0,027.8,020.8,11.0,0000.0,0001.58,0001.67,0001.53
2024-01-27 12:26:00,SystemResetWarning,0835.4,4.99,000.00,019.5,018.7,000.0,027.8,020.8,10.9,0000.0,0001.63,0001.73,0001.55
2024-01-27 12:27:00,SystemResetWarning,0835.4,4.99,000.00,019.5,018.8,000.0,027.8,020.8,11.2,0000.0,0001.62,0001.70,0001.57
2024-01-27 12:28:00,SystemResetWarning,0835.4,4.99,000.00,019.5,018.8,000.0,027.8,020.8,11.3,0000.0,0001.63,0001.70,0001.57
2024-01-27 12:29:00,SystemResetWarning,0835.4,5.01,000.00,019.5,018.8,000.0,027.8,020.8,11.5,0000.0,0001.66,0001.74,0001.59
2024-01-27 12:30:00,SystemResetWarning,0835.4,5.00,000.00,019.5,018.8,000.0,027.8,020.8,12.1,0000.0,0001.68,0001.76,0001.61
2024-01-27 12:31:00,SystemResetWarning,0835.3,5.01,000.00,019.5,018.7,000.0,027.8,020.8,12.4,0000.0,0001.72,0001.83,0001.63
2024-01-27 12:32:00,SystemResetWarning,0835.5,5.00,000.00,019.5,018.7,000.0,027.8,020.8,12.4,0000.0,0001.76,0001.89,0001.66
2024-01-27 12:33:00,SystemResetWarning,0835.5,5.00,000.00,019.5,018.7,000.0,027.8,020.8,12.5,0000.0,0001.77,0001.87,0001.68
2024-01-27 12:34:00,SystemResetWarning,0835.5,5.00,000.00,019.5,018.7,000.0,027.8,020.8,12.5,0000.0,0001.78,0001.87,0001.70
2024-01-27 12:35:00,SystemResetWarning,0835.5,5.00,000.00,019.5,018.7,000.0,027.8,020.8,12.8,0000.0,0001.78,0001.87,0001.70
2024-01-27 12:36:00,SystemResetWarning,0835.5,5.00,000.00,019.5,018.7,000.0,027.8,020.8,12.8,0000.0,0001.77,0001.87,0001.68
2024-01-27 12:37:00,SystemResetWarning,0835.5,4.99,000.00,019.5,018.7,000.0,027.8,020.8,12.7,0000.0,0001.73,0001.79,0001.66
2024-01-27 12:38:00,SystemResetWarning,0835.5,5.00,000.00,019.5,018.7,000.0,027.8,020.8,12.8,0000.0,0001.72,0001.80,0001.65
2024-01-27 12:39:00,SystemResetWarning,0835.5,5.00,000.00,019.5,018.7,000.0,027.8,020.8,13.0,0000.0,0001.73,0001.81,0001.66
2024-01-27 12:40:00,SystemResetWarning,0835.5,5.01,000.00,019.5,018.7,000.0,027.8,020.8,13.1,0000.0,0001.73,0001.80,0001.67
2024-01-27 12:41:00,SystemResetWarning,0835.5,5.01,000.00,019.5,018.7,000.0,027.8,020.8,13.0,0000.0,0001.77,0001.85,0001.69
2024-01-27 12:42:00,SystemResetWarning,0835.5,4.99,000.00,019.5,018.7,000.0,027.8,020.8,12.7,0000.0,0001.77,0001.83,0001.70
2024-01-27 12:43:00,SystemResetWarning,0835.5,4.99,000.00,019.5,018.7,000.0,027.8,020.8,12.7,0000.0,0001.78,0001.82,0001.72
2024-01-27 12:44:00,SystemResetWarning,0835.5,5.00,000.00,019.5,018.7,000.0,027.8,020.8,12.9,0000.0,0001.80,0001.83,0001.73
2024-01-27 12:45:00,SystemResetWarning,0835.5,5.00,000.00,019.5,018.7,000.0,027.8,020.8,12.6,0000.0,0001.81,0001.84,0001.75
2024-01-27 12:46:00,SystemResetWarning,0835.5,5.00,000.00,019.5,018.7,000.0,027.8,020.8,12.2,0000.0,0001.81,0001.83,0001.75
2024-01-27 12:47:00,SystemResetWarning,0835.5,5.01,000.00,019.5,018.7,000.0,027.8,020.8,12.2,0000.0,0001.82,0001.85,0001.76
2024-01-27 12:48:00,SystemResetWarning,0835.5,5.00,000.00,019.5,018.7,000.0,027.8,020.8,12.3,0000.0,0001.82,0001.85,0001.76
2024-01-27 12:49:00,SystemResetWarning,0835.6,5.00,000.00,019.5,018.7,000.0,027.8,020.8,12.5,0000.0,0001.81,0001.84,0001.76
2024-01-27 12:50:00,SystemResetWarning,0835.5,5.00,000.00,019.5,018.7,000.0,027.8,020.8,12.6,0000.0,0001.78,0001.82,0001.73
2024-01-27 12:51:00,SystemResetWarning,0835.5,5.00,000.00,019.5,018.7,000.0,027.8,020.8,12.8,0000.0,0001.76,0001.80,0001.71
2024-01-27 12:52:00,SystemResetWarning,0835.5,4.99,000.00,019.5,018.7,000.0,027.8,020.8,12.8,0000.0,0001.75,0001.81,0001.69
2024-01-27 12:53:00,SystemResetWarning,0835.5,4.99,000.00,019.5,018.7,000.0,027.8,020.8,12.9,0000.0,0001.73,0001.79,0001.68
2024-01-27 12:54:00,SystemResetWarning,0835.5,5.00,000.00,019.5,018.7,000.0,027.8,020.8,13.0,0000.0,0001.72,0001.78,0001.67
2024-01-27 12:55:00,SystemResetWarning,0835.6,5.00,000.00,019.5,018.7,000.0,027.8,020.8,13.2,0000.0,0001.77,0001.84,0001.70
2024-01-27 12:56:00,SystemResetWarning,0835.5,5.00,000.00,019.5,018.7,000.0,027.8,020.7,13.2,0000.0,0001.81,0001.89,0001.75
2024-01-27 12:57:00,SystemResetWarning,0835.5,5.00,000.00,019.5,018.6,000.0,027.8,020.7,13.1,0000.0,0001.87,0001.97,0001.78
2024-01-27 12:58:00,SystemResetWarning,0835.5,5.00,000.00,019.5,018.6,000.0,027.8,020.7,12.9,0000.0,0001.91,0002.03,0001.82
2024-01-27 12:59:00,SystemResetWarning,0835.5,5.00,000.00,019.4,018.6,000.0,027.8,020.7,12.7,0000.0,0001.97,0002.10,0001.88
